Saigon Express — VRBT7 — position and weather

sailwx.info

Track history (hours):
 
Tides and Currents Weather Stations Pressure Air Temp Water Temp Dewpoint Dewpoint Depression Visibility Wind Speed Wind Dir Waves Ship Positions

Saigon Express

Last reported at 2014-Oct-19 00:28 UTC. Time now 2014-Oct-21 16:46 UTC.
Position N 32°06' W 080°60'.

Length 260 m; draft 11.5 m.

Type: Ship (hazmat cat A). MMSI: 477106800.

Date/timePositionNaut miles runAvg speedWind from/ knotsBaromVisibWave heightAir tempDewpointWater temp
2014-Oct-19 00:28N 32°06' W 080°60'6 6.6
2014-Oct-18 23:33N 32°06' W 081°07'2 1.4
2014-Oct-18 22:21N 32°08' W 081°08'0 0.0
2014-Oct-18 21:33N 32°08' W 081°08'0 0.0
2014-Oct-18 20:33N 32°08' W 081°08'0 0.0
2014-Oct-18 19:29N 32°08' W 081°08'0 0.0
2014-Oct-18 18:33N 32°08' W 081°08'0 0.0
2014-Oct-18 17:32N 32°08' W 081°08'0 0.0
2014-Oct-18 16:32N 32°08' W 081°08'0 0.0
2014-Oct-18 15:33N 32°08' W 081°08'0 0.0
2014-Oct-18 14:33N 32°08' W 081°08'0 0.0
2014-Oct-18 13:29N 32°08' W 081°08'0 0.0
2014-Oct-18 12:33N 32°08' W 081°08'0 0.0
2014-Oct-18 11:30N 32°08' W 081°08'0 0.0
2014-Oct-18 10:29N 32°08' W 081°08'0 0.0
2014-Oct-18 09:32N 32°08' W 081°08'2 2.4
2014-Oct-18 08:31N 32°06' W 081°06'6 5.9
2014-Oct-18 07:33N 32°06' W 080°60'1312.5
2014-Oct-18 06:33N 31°60' W 080°47'38114.0
2014-Oct-17 03:21N 36°50' W 075°48'1215.1
2014-Oct-17 02:33N 36°57' W 076°00'16 2.0
2014-Oct-16 18:31N 36°54' W 076°20'0 0.0
2014-Oct-16 17:13N 36°54' W 076°20'0 0.0
2014-Oct-16 13:31N 36°54' W 076°20'0 0.0
2014-Oct-16 11:28N 36°54' W 076°20'0 0.0
2014-Oct-16 10:04N 36°54' W 076°20'0 0.0
2014-Oct-16 09:19N 36°54' W 076°20'2 1.9
2014-Oct-16 08:28N 36°56' W 076°20'9 9.8
2014-Oct-16 07:33N 36°59' W 076°10'1312.9
2014-Oct-16 06:31N 36°55' W 075°54'12611.2
2014-Oct-15 19:17N 38°26' W 074°05'1515.6
2014-Oct-15 18:18N 38°40' W 074°00'1215.6
2014-Oct-15 17:33N 38°52' W 073°57'1515.3
2014-Oct-15 16:33N 39°07' W 073°54'1515.3
2014-Oct-15 15:33N 39°23' W 073°53'1515.2
2014-Oct-15 14:33N 39°38' W 073°52'1515.2
2014-Oct-15 13:33N 39°53' W 073°51'1515.3
2014-Oct-15 12:33N 40°08' W 073°50'1515.0
2014-Oct-15 11:33N 40°23' W 073°49'1110.7
2014-Oct-15 10:33N 40°31' W 073°59'1110.7
2014-Oct-15 09:33N 40°39' W 074°08'1 1.2
2014-Oct-15 08:31N 40°40' W 074°09'0 0.0
2014-Oct-15 07:28N 40°40' W 074°09'0 0.0
2014-Oct-15 06:31N 40°40' W 074°09'0 0.0
2014-Oct-15 05:25N 40°40' W 074°09'0 0.0
2014-Oct-15 04:28N 40°40' W 074°09'0 0.0
2014-Oct-15 03:31N 40°40' W 074°09'0 0.0
2014-Oct-15 02:31N 40°40' W 074°09'0 0.0
2014-Oct-15 01:31N 40°40' W 074°09'0 0.0
2014-Oct-15 00:31N 40°40' W 074°09'0 0.0
2014-Oct-14 23:25N 40°40' W 074°09'0 0.0
2014-Oct-14 22:31N 40°40' W 074°09'0 0.0
2014-Oct-14 21:31N 40°40' W 074°09'0 0.0
2014-Oct-14 20:31N 40°40' W 074°09'0 0.0
2014-Oct-14 19:31N 40°40' W 074°09'0 0.0
2014-Oct-14 18:31N 40°40' W 074°09'0 0.0
2014-Oct-14 17:22N 40°40' W 074°09'0 0.0
2014-Oct-14 16:13N 40°40' W 074°09'0 0.0
2014-Oct-14 15:33N 40°40' W 074°09'3 2.9
2014-Oct-14 14:32N 40°39' W 074°05'1612.7
2014-Oct-14 13:16N 40°28' W 073°50'4 4.3
2014-Oct-14 12:26N 40°29' W 073°46'0 0.0
2014-Oct-14 11:29N 40°29' W 073°46'0 0.0
2014-Oct-14 10:32N 40°29' W 073°46'2 2.4
2014-Oct-14 09:31N 40°28' W 073°43'11 8.6
2014-Oct-14 08:11N 40°28' W 073°28'914.4
2014-Oct-14 07:34N 40°29' W 073°16'1514.5
2014-Oct-14 06:34N 40°30' W 072°57'1514.8
2014-Oct-14 05:32N 40°31' W 072°38'1514.9
2014-Oct-14 04:31N 40°31' W 072°18'1515.1
2014-Oct-14 03:33N 40°31' W 071°59'1515.0
2014-Oct-14 02:34N 40°32' W 071°39'1514.9
2014-Oct-14 01:33N 40°32' W 071°19'1616.1
2014-Oct-14 00:33N 40°32' W 070°58'1616.2
2014-Oct-13 23:33N 40°33' W 070°37'1616.2
2014-Oct-13 22:33N 40°33' W 070°16'1616.3
2014-Oct-13 21:33N 40°35' W 069°54'1616.4
2014-Oct-13 20:33N 40°34' W 069°33'1716.8
2014-Oct-13 19:32N 40°34' W 069°10'1716.9
2014-Oct-13 18:33N 40°35' W 068°48'  
2014-Oct-09 11:28N 39°60' W 030°06'1718.1
2014-Oct-09 10:33N 39°57' W 029°45'1818.4
2014-Oct-09 09:33N 39°53' W 029°21'1818.2
2014-Oct-09 08:33N 39°49' W 028°58'1918.6
2014-Oct-09 07:33N 39°46' W 028°34'1918.6
2014-Oct-09 06:33N 39°41' W 028°11'1818.3
2014-Oct-09 05:33N 39°38' W 027°47'2318.3
2014-Oct-09 04:19N 39°33' W 027°19'1418.3
2014-Oct-09 03:33N 39°30' W 027°01'1818.0
2014-Oct-09 02:32N 39°26' W 026°38'1918.6
2014-Oct-09 01:32N 39°22' W 026°14'1818.2
2014-Oct-09 00:33N 39°18' W 025°52'  
Track history (hours):
 
Tides and Currents Weather Stations Pressure Air Temp Water Temp Dewpoint Dewpoint Depression Visibility Wind Speed Wind Dir Waves Ship Positions

Saigon Express

Last reported at 2014-Oct-19 00:28 UTC. Time now 2014-Oct-21 16:46 UTC.
Position N 32°06' W 080°60'.

Length 260 m; draft 11.5 m.

Type: Ship (hazmat cat A). MMSI: 477106800.

Date/timePositionNaut miles runAvg speedWind from/ knotsBaromVisibWave heightAir tempDewpointWater temp
2014-Oct-19 00:28N 32°06' W 080°60'6 6.6
2014-Oct-18 23:33N 32°06' W 081°07'2 1.4
2014-Oct-18 22:21N 32°08' W 081°08'0 0.0
2014-Oct-18 21:33N 32°08' W 081°08'0 0.0
2014-Oct-18 20:33N 32°08' W 081°08'0 0.0
2014-Oct-18 19:29N 32°08' W 081°08'0 0.0
2014-Oct-18 18:33N 32°08' W 081°08'0 0.0
2014-Oct-18 17:32N 32°08' W 081°08'0 0.0
2014-Oct-18 16:32N 32°08' W 081°08'0 0.0
2014-Oct-18 15:33N 32°08' W 081°08'0 0.0
2014-Oct-18 14:33N 32°08' W 081°08'0 0.0
2014-Oct-18 13:29N 32°08' W 081°08'0 0.0
2014-Oct-18 12:33N 32°08' W 081°08'0 0.0
2014-Oct-18 11:30N 32°08' W 081°08'0 0.0
2014-Oct-18 10:29N 32°08' W 081°08'0 0.0
2014-Oct-18 09:32N 32°08' W 081°08'2 2.4
2014-Oct-18 08:31N 32°06' W 081°06'6 5.9
2014-Oct-18 07:33N 32°06' W 080°60'1312.5
2014-Oct-18 06:33N 31°60' W 080°47'38114.0
2014-Oct-17 03:21N 36°50' W 075°48'1215.1
2014-Oct-17 02:33N 36°57' W 076°00'16 2.0
2014-Oct-16 18:31N 36°54' W 076°20'0 0.0
2014-Oct-16 17:13N 36°54' W 076°20'0 0.0
2014-Oct-16 13:31N 36°54' W 076°20'0 0.0
2014-Oct-16 11:28N 36°54' W 076°20'0 0.0
2014-Oct-16 10:04N 36°54' W 076°20'0 0.0
2014-Oct-16 09:19N 36°54' W 076°20'2 1.9
2014-Oct-16 08:28N 36°56' W 076°20'9 9.8
2014-Oct-16 07:33N 36°59' W 076°10'1312.9
2014-Oct-16 06:31N 36°55' W 075°54'12611.2
2014-Oct-15 19:17N 38°26' W 074°05'1515.6
2014-Oct-15 18:18N 38°40' W 074°00'1215.6
2014-Oct-15 17:33N 38°52' W 073°57'1515.3
2014-Oct-15 16:33N 39°07' W 073°54'1515.3
2014-Oct-15 15:33N 39°23' W 073°53'1515.2
2014-Oct-15 14:33N 39°38' W 073°52'1515.2
2014-Oct-15 13:33N 39°53' W 073°51'1515.3
2014-Oct-15 12:33N 40°08' W 073°50'1515.0
2014-Oct-15 11:33N 40°23' W 073°49'1110.7
2014-Oct-15 10:33N 40°31' W 073°59'1110.7
2014-Oct-15 09:33N 40°39' W 074°08'1 1.2
2014-Oct-15 08:31N 40°40' W 074°09'0 0.0
2014-Oct-15 07:28N 40°40' W 074°09'0 0.0
2014-Oct-15 06:31N 40°40' W 074°09'0 0.0
2014-Oct-15 05:25N 40°40' W 074°09'0 0.0
2014-Oct-15 04:28N 40°40' W 074°09'0 0.0
2014-Oct-15 03:31N 40°40' W 074°09'0 0.0
2014-Oct-15 02:31N 40°40' W 074°09'0 0.0
2014-Oct-15 01:31N 40°40' W 074°09'0 0.0
2014-Oct-15 00:31N 40°40' W 074°09'0 0.0
2014-Oct-14 23:25N 40°40' W 074°09'0 0.0
2014-Oct-14 22:31N 40°40' W 074°09'0 0.0
2014-Oct-14 21:31N 40°40' W 074°09'0 0.0
2014-Oct-14 20:31N 40°40' W 074°09'0 0.0
2014-Oct-14 19:31N 40°40' W 074°09'0 0.0
2014-Oct-14 18:31N 40°40' W 074°09'0 0.0
2014-Oct-14 17:22N 40°40' W 074°09'0 0.0
2014-Oct-14 16:13N 40°40' W 074°09'0 0.0
2014-Oct-14 15:33N 40°40' W 074°09'3 2.9
2014-Oct-14 14:32N 40°39' W 074°05'1612.7
2014-Oct-14 13:16N 40°28' W 073°50'4 4.3
2014-Oct-14 12:26N 40°29' W 073°46'0 0.0
2014-Oct-14 11:29N 40°29' W 073°46'0 0.0
2014-Oct-14 10:32N 40°29' W 073°46'2 2.4
2014-Oct-14 09:31N 40°28' W 073°43'11 8.6
2014-Oct-14 08:11N 40°28' W 073°28'914.4
2014-Oct-14 07:34N 40°29' W 073°16'1514.5
2014-Oct-14 06:34N 40°30' W 072°57'1514.8
2014-Oct-14 05:32N 40°31' W 072°38'1514.9
2014-Oct-14 04:31N 40°31' W 072°18'1515.1
2014-Oct-14 03:33N 40°31' W 071°59'1515.0
2014-Oct-14 02:34N 40°32' W 071°39'1514.9
2014-Oct-14 01:33N 40°32' W 071°19'1616.1
2014-Oct-14 00:33N 40°32' W 070°58'1616.2
2014-Oct-13 23:33N 40°33' W 070°37'1616.2
2014-Oct-13 22:33N 40°33' W 070°16'1616.3
2014-Oct-13 21:33N 40°35' W 069°54'1616.4
2014-Oct-13 20:33N 40°34' W 069°33'1716.8
2014-Oct-13 19:32N 40°34' W 069°10'1716.9
2014-Oct-13 18:33N 40°35' W 068°48'  
2014-Oct-09 11:28N 39°60' W 030°06'1718.1
2014-Oct-09 10:33N 39°57' W 029°45'1818.4
2014-Oct-09 09:33N 39°53' W 029°21'1818.2
2014-Oct-09 08:33N 39°49' W 028°58'1918.6
2014-Oct-09 07:33N 39°46' W 028°34'1918.6
2014-Oct-09 06:33N 39°41' W 028°11'1818.3
2014-Oct-09 05:33N 39°38' W 027°47'2318.3
2014-Oct-09 04:19N 39°33' W 027°19'1418.3
2014-Oct-09 03:33N 39°30' W 027°01'1818.0
2014-Oct-09 02:32N 39°26' W 026°38'1918.6
2014-Oct-09 01:32N 39°22' W 026°14'1818.2
2014-Oct-09 00:33N 39°18' W 025°52'  

Dump ship's entire track history